Cortez, CO

8:43 AM MDT on May 25, 2017 (GMT -0600)
Cortez Municipal

Weather History for KCEZ - December, 2012

Change the Weather History Date:

Wednesday, December 12, 2012

  Actual Average Record
Temperature  
Mean Temperature 27 °F 29 °F  
Max Temperature 48 °F 42 °F 62 °F (2014)
Min Temperature 6 °F 15 °F 3 °F (1997)
Degree Days  
Heating Degree Days 38 36  
Month to date heating degree days 383 422  
Since 1 July heating degree days 1687 1947  
Cooling Degree Days 0 0  
Month to date cooling degree days 0 0  
Year to date cooling degree days 746 426  
Moisture  
Dew Point 8 °F    
Average Humidity 52    
Maximum Humidity 80    
Minimum Humidity 23    
Precipitation  
Precipitation 0.00 in 0.03 in 0.12 in (2000)
Month to date precipitation 0.01 0.30  
Year to date precipitation 6.59 13.03  
Sea Level Pressure  
Sea Level Pressure 30.09 in    
Wind  
Wind Speed 4 mph (ESE)    
Max Wind Speed 14 mph    
Max Gust Speed 20 mph    
Visibility 10 miles    
Events      
T = Trace of Precipitation, MM = Missing Value Source: NWS Daily Summary

Daily Weather History Graph

Daily Weather History Graph

Search for Another Location

Airport or City:

Trip Planner

Search our weather history database for the weather conditions in past years. The results will help you decide how hot, cold, wet, or windy it might be!

Date:

Astronomy

Dec. 12, 2012 Rise Set
Actual Time 7:19 AM MST 4:57 PM MST
Civil Twilight 6:50 AM MST 5:26 PM MST
Nautical Twilight 6:17 AM MST 5:59 PM MST
Astronomical Twilight 5:46 AM MST 6:30 PM MST
Moon 6:27 AM MST (12/12) 4:37 PM MST (12/12)
Length of Visible Light 10h 36m
Length of Day
9h 37m
Waning Crescent, 0% of the Moon is Illuminated
Dec 12
Waning Crescent
Dec 13
New
Dec 19
First Quarter
Dec 28
Full
Jan 4
Last Quarter

Hourly Weather History & Observations

Time (MST) Temp. Windchill Dew Point Humidity Pressure Visibility Wind Dir Wind Speed Gust Speed Precip Events Conditions
12:53 AM 10.9 °F 2.9 °F 3.9 °F 73% 30.14 in 10.0 mi ENE 4.6 mph - N/A   Clear
1:53 AM 12.9 °F 6.9 °F 5.0 °F 71% 30.11 in 10.0 mi East 3.5 mph - N/A   Clear
2:53 AM 9.0 °F 2.4 °F 3.0 °F 77% 30.12 in 10.0 mi ENE 3.5 mph - N/A   Clear
3:53 AM 10.9 °F 2.9 °F 3.9 °F 73% 30.11 in 10.0 mi ENE 4.6 mph - N/A   Clear
4:53 AM 8.1 °F - 1.9 °F 76% 30.14 in 10.0 mi Calm Calm - N/A   Clear
5:53 AM 9.0 °F 2.4 °F 1.9 °F 73% 30.18 in 10.0 mi ENE 3.5 mph - N/A   Clear
6:53 AM 8.1 °F 1.4 °F 1.9 °F 76% 30.20 in 10.0 mi WNW 3.5 mph - N/A   Clear
7:53 AM 10.0 °F 3.6 °F 3.9 °F 76% 30.20 in 10.0 mi East 3.5 mph - N/A   Clear
8:53 AM 21.0 °F - 10.9 °F 65% 30.17 in 10.0 mi Calm Calm - N/A   Clear
9:53 AM 33.1 °F - 15.1 °F 48% 30.15 in 10.0 mi Calm Calm - N/A   Clear
10:53 AM 42.1 °F - 12.9 °F 31% 30.11 in 10.0 mi Calm Calm - N/A   Clear
11:53 AM 46.9 °F - 10.9 °F 23% 30.05 in 10.0 mi Variable 3.5 mph - N/A   Clear
12:53 PM 46.0 °F 41.0 °F 10.9 °F 24% 30.04 in 10.0 mi South 10.4 mph - N/A   Clear
1:53 PM 46.9 °F - 10.9 °F 23% 30.03 in 10.0 mi South 6.9 mph - N/A   Clear
2:53 PM 46.0 °F 42.5 °F 10.9 °F 24% 30.03 in 10.0 mi SE 6.9 mph - N/A   Clear
3:53 PM 44.1 °F 42.5 °F 10.9 °F 26% 30.03 in 10.0 mi South 3.5 mph - N/A   Clear
4:53 PM 43.0 °F 36.4 °F 10.9 °F 27% 30.05 in 10.0 mi SE 12.7 mph - N/A   Clear
5:53 PM 43.0 °F 36.0 °F 10.0 °F 26% 30.06 in 10.0 mi South 13.8 mph - N/A   Clear
6:53 PM 37.0 °F - 10.0 °F 33% 30.09 in 10.0 mi Calm Calm - N/A   Clear
7:53 PM 33.1 °F 28.7 °F 10.0 °F 38% 30.10 in 10.0 mi NE 4.6 mph - N/A   Clear
8:53 PM 33.1 °F - 10.0 °F 38% 30.07 in 10.0 mi Calm Calm - N/A   Clear
9:53 PM 33.1 °F - 10.0 °F 38% 30.03 in 10.0 mi Calm Calm - N/A   Clear
10:53 PM 39.9 °F 32.9 °F 10.0 °F 29% 29.98 in 10.0 mi SSW 11.5 mph - N/A   Clear
11:53 PM 37.0 °F 33.3 °F 9.0 °F 31% 29.98 in 10.0 mi West 4.6 mph - N/A   Clear